Regional Weather Roundup
Issued by NWS Albany, NY

Current Version | Previous Version | Text Only | Print | Product List | Glossary On
Versions: 1 2 3 4 5 6 7 8 9 10 11 12 13 14 15 16 17 18 19 20 21 22 23 24 25 26 27
000 ASUS41 KALY 201310 RWRALY NEW YORK STATE HOURLY WEATHER ROUNDUP NATIONAL WEATHER SERVICE ALBANY NY 900 AM EDT SUN APR 20 2014 NOTE: "FAIR" INDICATES FEW OR NO CLOUDS BELOW 12,000 FEET WITH NO SIGNIFICANT WEATHER AND/OR NO OBSTRUCTIONS TO VISIBILITY. NYZ032-033-038>043-046>054-057>066-NYZ062>081-201400- EAST CITY SKY/WX TMP DP RH WIND PRES REMARKS ALBANY MOSUNNY 44 28 53 VRB3 30.52R GLENS FALLS SUNNY 45 26 47 E5 30.51S POUGHKEEPSIE MOSUNNY 49 27 42 CALM 30.49S NEWBURGH MOSUNNY 46 27 46 VRB7 30.50R MONTGOMERY MOSUNNY 48 26 42 VRB5 30.48S WHITE PLAINS MOSUNNY 49 22 34 E10 30.47S ISLIP PTSUNNY 49 26 41 E10G20 30.47R NEW YORK CITY PTSUNNY 48 29 47 NE10 30.48S CENTRAL PARK MOSUNNY 49 26 41 E9 30.51R $$ NYZ005>009-017-018-044>046-055-056-201400- CENTRAL CITY SKY/WX TMP DP RH WIND PRES REMARKS FULTON SUNNY 44 28 53 SE7 30.46S SYRACUSE MOSUNNY 43 30 60 E5 30.46F ROME SUNNY 43 27 53 E8 30.49F ELMIRA SUNNY 38 30 73 CALM 30.44F BINGHAMTON SUNNY 41 27 57 SE8 30.43R MONTICELLO SUNNY 43 25 49 E9 30.47S $$ NYZ026>034-041>043-201400- NORTH CITY SKY/WX TMP DP RH WIND PRES REMARKS WATERTOWN SUNNY 47 26 44 VRB6 30.47F FORT DRUM NOT AVBL MASSENA SUNNY 40 24 53 E5 30.50F SARANAC LAKE SUNNY 37 17 44 CALM 30.43S PLATTSBURGH SUNNY 43 18 36 CALM 30.50F $$ NYZ001>004-010>016-019>021-201400- WEST CITY SKY/WX TMP DP RH WIND PRES REMARKS NIAGARA FALLS MOSUNNY 45 28 51 E8 30.37F BUFFALO MOSUNNY 46 28 49 SE6 30.37F DUNKIRK SUNNY 50 22 33 CALM 30.36S JAMESTOWN SUNNY 45 25 45 S13 30.37S WELLSVILLE SUNNY 43 25 49 SE8 30.39F ROCHESTER MOSUNNY 47 29 49 SE10 30.42F PENN YAN SUNNY 39 30 70 SW6 30.43F WCI 35 $$ KEY WCI = WIND CHILL INDEX VSB = VISIBILITY HX = HEAT INDEX $$

USA.gov is the U.S. government's official web portal to all federal, state and local government web resources and services.